This is the latest recevied weather packets stored in our database for station/object OE-11331. If no packets are shown the sender has not sent any weather packets the latest 10 day(s).
| Time | Temp. | Humidity | Pressure | Rain* | Wind** | Luminosity | Snow |
|---|---|---|---|---|---|---|---|
| 1787907334 | 22.22° C | 76% | 1015.7 hPa | 0 mm | - | 292 W/m² | - |
| 1787906506 | 22.22° C | 79% | 1015.7 hPa | 0 mm | - | 227 W/m² | - |
| 1787906130 | 21.67° C | 79% | 1015.7 hPa | 0 mm | - | 195 W/m² | - |
| 1787904707 | 21.67° C | 80% | 1015.5 hPa | 0 mm | - | 184 W/m² | - |
| 1787904334 | 21.67° C | 81% | 1015.4 hPa | 0 mm | - | 260 W/m² | - |
| 1787903734 | 21.67° C | 79% | 1015.3 hPa | 0 mm | - | 249 W/m² | - |
| 1787902906 | 21.11° C | 80% | 1015.7 hPa | 0 mm | - | 216 W/m² | - |
| 1787902534 | 21.11° C | 80% | 1015.6 hPa | 0 mm | - | 206 W/m² | - |
| 1787901934 | 21.11° C | 81% | 1015.7 hPa | 0 mm | - | 227 W/m² | - |
| 1787901106 | 20.56° C | 81% | 1015.8 hPa | 0 mm | - | 249 W/m² | - |
| 1787900733 | 20.56° C | 81% | 1015.8 hPa | 0 mm | - | 238 W/m² | - |
| 1787900134 | 20.56° C | 82% | 1016.3 hPa | 0 mm | - | 195 W/m² | - |
| 1787899307 | 20° C | 84% | 1016.3 hPa | 0 mm | - | 227 W/m² | - |
| 1787898933 | 20° C | 83% | 1016.1 hPa | 0 mm | - | 249 W/m² | - |
| 1787898334 | 20° C | 84% | 1016.1 hPa | 0 mm | - | 216 W/m² | - |
| 1787897506 | 19.44° C | 85% | 1016.1 hPa | 0 mm | - | 195 W/m² | - |
| 1787897133 | 18.89° C | 88% | 1016.2 hPa | 0 mm | - | 173 W/m² | - |
| 1787896533 | 18.89° C | 88% | 1016.4 hPa | 0 mm | - | 152 W/m² | - |
| 1787895706 | 18.33° C | 90% | 1016.4 hPa | 0 mm | - | 130 W/m² | - |
| 1787895334 | 17.78° C | 91% | 1016.2 hPa | 0 mm | - | 97 W/m² | - |
| 1787894734 | 17.78° C | 92% | 1016.2 hPa | 0 mm | - | 65 W/m² | - |
| 1787893907 | 17.78° C | 92% | 1016.2 hPa | 0 mm | - | 43 W/m² | - |
| 1787893534 | 17.22° C | 93% | 1016.1 hPa | 0 mm | - | 22 W/m² | - |
| 1787892934 | 17.78° C | 93% | 1016.1 hPa | 0 mm | - | 11 W/m² | - |
| 1787892106 | 17.78° C | 93% | 1016 hPa | 0 mm | - | 11 W/m² | - |
* Rain latest hour (hover to see other rain measurements)
** Current wind speed in m/s (hover to see current wind gust speed)